Find Starlink 5689

NORAD ID: 55474 Int'l Des: 2023-015 Owner: SPXS Country: US Constellation: starlink operational
LEOCIRCULAR

Current View

Loading 3D Globe...

About Starlink 5689

Description loading...

Upcoming Passes

Passes for default location (London). Set your location on the main map for personalized predictions.

Altitude History

Loading altitude history...

Two-Line Element Set

1 55474U 23015AB 26151.22215287 .00000582 00000-0 30686-4 0 9992
2 55474 43.0049 233.9661 0001931 283.4666 76.5970 15.27575768183218
Epoch: May 31, 2026 • Age: 6 hours

Current Status

Altitude 488.8 km
Velocity 7.62 km/s
Sub-Earth Point -25.33°S, 29.1°E
Launch Date Feb 2, 2023
Age 3.3 years
Type internet

Technical Details

Classification Payload
Mass 305.00 kg
Dry Mass 290.00 kg
Total Mass 305.00 kg
Length 0.20 m
Diameter 2.80 m
Span 9.00 m
Shape Box + pan
Manufacturer SPXS
Bus Type Starlink
Phase Status In Orbit
Owner/State SPXS/US

Most Searched